GFSCGP_sfc_rhum_138.txt.gz
RH
32 30 28 22 24 23 21 22 22 17 20 27 25 29 27 28 35 38 37 35 35 36 38 40 42 43 47 53 54 50 54 55 69 83 62 67 69 72 97 93 82 85 89 80
30 31 21 25 26 26 24 22 22 19 24 31 25 28 24 32 37 42 42 39 43 49 46 50 48 48 48 51 55 60 66 64 79 73 60 65 66 84 88 96 93 85 87 77
25 22 24 28 28 28 25 23 21 21 23 26 34 32 36 41 42 42 40 44 48 59 64 68 59 55 60 67 72 77 78 73 81 69 68 82 92 98 98 99 98 87 83 84
27 20 25 28 26 24 25 21 23 25 30 26 33 25 35 34 38 42 44 46 52 71 76 76 79 81 81 87 78 81 82 81 72 73 68 82 94 99 98 98 98 98 89 86
25 26 29 31 26 22 22 28 29 32 33 36 35 38 26 36 36 36 45 52 61 73 78 80 79 81 84 82 80 81 78 81 80 81 73 86 98 99 99 99 98 97 98 96
22 20 22 20 22 21 32 34 40 43 39 42 33 37 22 29 34 44 46 54 66 71 76 77 74 76 88 85 85 87 91 94 89 92 94 95 98 99 98 98 98 97 97 98
25 25 20 20 27 30 30 29 47 45 64 37 45 48 28 31 46 51 53 57 65 74 81 85 81 79 80 86 86 85 88 94 93 95 94 97 98 98 99 97 98 98 97 97
30 31 26 20 19 22 26 24 52 89 45 52 48 55 32 34 45 56 60 61 67 78 84 86 91 84 88 85 84 78 84 86 86 91 96 95 96 97 97 96 94 95 96 97
25 27 23 22 21 19 34 32 28 47 55 52 49 34 44 54 51 57 62 63 66 77 85 90 88 91 88 88 83 81 84 86 86 89 91 92 93 93 94 95 92 95 94 95
20 27 23 34 27 35 29 27 37 39 82 39 22 23 18 53 47 50 61 60 62 69 86 88 91 92 88 89 90 88 83 90 90 90 88 87 85 87 90 90 92 90 94 93
20 22 27 30 28 26 37 30 32 33 34 25 18 15 19 27 32 41 53 58 59 65 78 88 92 92 89 90 91 92 90 90 93 92 91 89 85 81 84 86 86 87 90 91
23 21 25 25 22 22 21 22 23 21 34 31 28 19 22 21 27 40 52 58 57 65 80 85 90 90 90 89 88 91 92 92 94 91 88 92 92 89 89 92 90 83 87 81
26 24 27 29 27 29 30 28 24 22 29 28 25 19 27 29 35 45 53 58 58 64 82 87 88 86 81 78 79 81 83 89 89 87 90 88 90 93 92 89 86 79 78 78
34 26 21 22 20 21 29 26 27 23 23 19 23 19 36 37 42 51 54 56 56 62 70 86 84 77 77 73 70 73 75 79 80 78 80 83 80 79 75 73 73 70 67 66
26 27 23 21 23 25 24 28 30 26 20 20 16 22 16 31 37 44 52 58 59 64 71 80 80 74 67 68 64 67 72 73 70 70 76 80 76 74 70 68 65 61 60 57
31 27 27 25 27 24 26 25 28 25 21 20 19 20 15 14 27 36 49 59 65 61 64 69 72 63 60 58 62 68 71 73 70 72 76 74 70 65 63 60 56 55 54 51
31 31 33 28 28 32 32 29 27 26 23 22 26 21 17 24 30 36 46 56 61 58 59 64 66 60 53 52 55 59 57 54 58 64 64 61 58 59 56 52 52 52 49 45
38 33 34 28 33 37 20 22 21 24 22 23 20 20 22 20 23 28 36 48 53 56 56 60 60 60 54 50 51 51 48 47 50 53 55 55 54 55 53 50 50 46 45 47
40 34 34 38 36 23 27 29 29 30 26 22 24 20 19 24 27 29 30 37 45 50 50 52 53 56 53 51 47 47 44 40 39 42 44 46 46 47 47 48 47 44 44 44
39 37 34 37 45 43 21 21 23 24 26 17 24 22 21 30 24 19 29 35 39 46 48 52 53 52 51 49 44 44 42 39 36 35 36 36 37 42 45 48 47 43 40 43
48 43 42 38 38 29 25 28 25 26 20 22 22 22 24 28 18 18 28 35 37 46 51 52 55 55 54 48 44 42 39 38 34 33 35 36 38 39 41 44 43 44 42 43
45 47 42 35 41 42 32 32 23 18 27 26 27 25 31 25 30 31 30 38 44 51 54 56 60 57 54 48 44 41 40 35 34 35 36 36 36 35 38 43 43 41 44 42
47 32 32 32 32 32 31 29 26 28 24 30 30 30 30 31 29 38 40 42 47 50 55 55 57 60 56 49 44 41 39 36 37 37 38 36 35 36 38 40 43 43 41 40
36 32 34 34 27 31 34 32 29 26 25 28 29 33 32 29 31 41 42 45 45 49 53 54 56 58 57 50 46 39 37 37 36 36 36 35 36 38 37 37 37 40 41 40
30 31 29 29 27 31 32 32 30 28 27 29 33 34 33 29 34 39 43 44 44 48 52 53 54 54 55 50 46 39 38 37 36 33 34 36 36 40 38 38 40 40 34 41
26 27 30 28 20 21 22 27 31 31 29 27 32 37 35 31 36 37 42 42 44 48 51 53 53 52 50 48 45 41 41 38 36 34 35 37 38 41 40 43 47 55 48 56

GFSCGP_sfc_rhum_144.txt.gz
RH
31 37 40 31 27 24 23 24 27 24 18 21 25 24 21 19 23 32 35 34 39 38 44 56 59 60 56 52 49 57 59 57 57 81 86 79 85 78 87 95 94 92 89 84
31 40 29 23 22 23 25 27 30 24 19 24 24 24 20 18 24 27 34 40 42 51 63 67 63 70 74 76 57 61 61 62 64 90 79 79 86 93 97 98 96 94 90 85
33 26 22 24 25 25 29 29 26 25 23 21 22 25 22 22 24 39 40 39 51 67 74 66 67 76 81 87 91 74 62 61 66 88 90 94 94 98 99 99 99 97 91 85
28 21 21 26 24 22 33 23 24 24 32 36 26 41 26 37 40 44 42 42 64 71 69 67 75 84 89 91 92 85 78 72 81 87 93 89 90 96 99 99 99 99 93 93
30 26 29 30 25 23 26 29 28 30 32 34 31 40 31 30 46 44 40 49 64 74 69 67 82 86 88 90 93 93 88 88 90 92 90 93 98 98 98 100 99 98 98 93
25 22 25 25 21 23 25 30 34 37 42 53 32 33 37 38 36 37 40 51 64 70 67 71 78 84 89 90 92 93 94 95 92 91 91 96 98 99 99 99 99 99 98 98
29 26 24 22 29 29 32 39 79 66 78 64 40 42 40 37 34 39 45 58 66 74 68 81 88 88 87 90 91 90 93 98 96 96 96 97 97 97 97 98 99 98 98 97
42 42 27 22 25 32 33 37 82 84 83 86 44 67 36 35 39 43 45 59 68 77 71 76 88 91 90 89 90 89 91 95 95 97 98 98 98 98 99 98 98 99 98 97
32 35 22 21 20 23 33 42 32 48 44 62 67 42 48 43 48 52 57 66 75 79 78 75 85 91 92 91 92 91 92 94 93 95 96 98 97 98 99 98 98 99 98 97
28 34 26 25 23 23 25 27 45 49 74 71 41 31 40 48 52 54 59 67 72 72 72 81 87 90 92 91 89 89 91 95 95 94 94 95 96 96 96 97 98 98 98 98
26 30 36 31 32 30 31 36 32 36 44 50 49 36 25 43 42 49 53 58 70 76 71 76 89 90 90 90 90 93 91 94 95 94 93 94 95 94 95 95 96 97 97 97
25 31 39 36 25 22 25 30 29 50 48 39 41 38 18 34 35 40 44 52 64 71 80 77 90 90 90 91 91 92 92 94 93 91 92 94 93 93 94 94 93 92 95 93
35 36 48 40 34 28 32 26 24 27 31 38 50 38 20 26 28 34 49 54 59 75 79 83 92 91 86 84 88 87 91 90 87 87 89 92 93 93 96 96 94 88 86 90
54 40 41 46 34 31 32 29 25 26 34 31 31 35 29 26 29 40 54 56 59 76 80 79 90 86 83 80 83 88 89 86 82 82 85 86 86 85 84 82 80 77 75 73
53 49 42 38 32 26 26 28 27 29 26 30 26 26 24 27 29 40 53 53 58 70 78 79 85 82 77 79 80 84 86 85 78 78 80 81 76 72 70 68 67 65 66 63
59 53 45 43 34 30 30 25 26 26 26 25 25 24 24 24 29 38 50 53 59 66 75 78 78 78 74 77 80 81 78 78 75 78 78 75 73 70 70 66 64 62 61 60
78 60 54 60 36 31 37 27 26 27 24 26 29 23 22 26 28 31 43 50 54 60 71 83 80 75 69 73 75 79 76 72 76 79 76 73 71 70 67 62 61 61 64 66
98 95 75 64 45 58 36 24 22 24 23 23 22 26 26 25 26 28 36 46 51 55 68 75 75 71 72 70 71 73 72 73 75 73 68 65 70 75 73 73 74 72 70 70
91 96 99 82 67 50 42 34 28 26 26 24 24 23 24 25 25 32 31 39 45 52 64 68 69 68 68 70 70 71 72 76 76 78 74 71 70 72 73 73 71 69 68 68
80 90 99 99 86 85 41 31 24 22 33 24 23 24 24 30 37 34 29 35 43 49 58 63 62 59 63 67 67 70 68 69 70 66 66 65 66 69 71 70 67 65 62 57
92 97 97 96 97 64 36 28 30 36 37 24 22 21 25 27 26 28 29 35 41 48 55 57 57 58 60 62 60 61 62 64 59 57 58 57 60 62 63 63 60 61 60 59
79 94 96 88 98 90 36 34 29 28 31 34 32 22 26 25 30 31 29 37 44 51 56 56 58 59 58 59 56 55 58 53 49 50 50 52 56 48 55 61 60 58 64 64
70 74 74 63 55 45 34 37 32 36 36 35 33 34 25 33 28 34 32 39 45 51 54 56 58 60 58 57 53 52 53 43 44 46 51 51 50 53 56 62 62 63 62 66
34 47 73 56 43 39 33 32 38 35 37 34 34 32 33 31 37 32 35 40 47 51 56 58 60 61 62 59 55 48 46 40 42 46 49 50 49 52 53 54 56 64 64 65
62 50 52 49 41 37 34 29 30 34 36 33 34 36 35 36 38 36 40 42 48 53 56 59 61 62 63 61 57 47 44 41 42 43 43 44 46 51 52 55 60 60 59 62
59 69 71 51 36 36 32 29 37 36 39 36 39 39 42 40 41 40 42 44 50 55 57 62 62 63 63 60 57 48 45 42 42 42 42 43 47 52 54 62 79 71 69 68

GFSCGP_sfc_rhum_147.txt.gz
RH
42 53 60 49 43 39 36 36 36 32 25 27 30 31 29 24 24 28 38 38 53 74 74 72 68 73 78 82 85 64 59 58 68 81 96 96 93 89 90 97 94 92 89 86
48 54 42 36 36 37 36 37 40 33 25 28 27 28 26 24 23 29 40 53 73 82 82 78 74 80 88 93 94 80 64 65 69 87 94 94 93 93 96 97 97 97 96 88
47 41 32 34 37 37 36 38 39 35 29 30 28 37 29 28 40 44 50 71 81 82 86 81 79 78 84 91 97 94 70 68 70 88 95 97 98 98 98 98 99 98 97 95
42 31 32 35 32 33 38 32 33 35 39 44 29 48 32 35 56 53 54 86 87 87 84 78 79 87 92 93 93 90 80 74 80 89 93 94 94 96 99 99 99 99 96 96
41 35 36 35 30 27 34 31 34 39 42 46 42 48 43 44 60 59 59 85 88 86 80 70 82 89 90 92 94 95 93 85 89 92 92 96 96 97 98 99 99 98 98 97
33 27 29 31 28 29 30 33 40 44 50 65 45 44 46 52 54 56 64 82 84 86 74 69 85 86 91 92 94 94 94 97 96 94 96 96 99 97 99 99 99 99 99 99
35 32 30 25 33 32 34 44 78 68 83 73 48 50 41 39 48 46 70 83 84 84 75 87 92 92 90 93 93 91 94 98 97 98 97 97 97 97 95 98 99 99 99 98
48 48 34 28 29 34 42 43 76 75 91 85 52 68 47 45 53 54 68 76 82 86 75 87 94 93 92 91 93 92 94 98 97 97 98 98 97 98 99 98 99 98 97 98
46 49 30 26 25 26 40 46 45 55 62 68 67 48 48 59 60 70 78 84 88 88 75 89 93 94 93 93 94 94 95 95 96 97 98 98 98 98 99 99 98 99 96 95
38 46 30 29 28 31 36 35 50 61 68 74 60 53 43 68 66 74 83 88 88 86 79 88 93 94 94 93 94 93 93 96 96 96 96 97 96 96 98 98 98 98 98 95
34 40 41 35 39 36 37 38 41 46 65 69 59 48 31 51 58 64 79 82 86 86 78 90 94 94 94 93 95 94 94 95 96 95 95 96 96 95 95 97 98 98 98 98
51 42 46 41 31 28 27 30 32 60 52 52 53 45 26 43 53 58 68 75 81 77 77 93 94 95 94 94 95 96 95 95 94 93 93 95 93 93 96 96 96 96 97 96
63 69 51 53 43 37 38 36 31 35 44 50 54 42 35 49 54 53 66 77 78 84 84 92 95 94 94 93 92 93 92 93 91 91 92 94 94 95 97 96 94 93 91 93
72 72 62 49 43 37 40 34 31 32 40 41 43 37 33 41 51 53 64 76 84 85 81 88 92 90 89 91 92 93 91 87 86 85 88 91 91 87 86 86 86 86 82 86
79 99 71 59 36 33 31 33 31 34 32 40 31 31 28 31 42 49 62 79 90 89 83 82 88 89 87 90 91 90 88 83 83 85 84 83 80 76 76 74 69 69 71 68
84 99 82 76 49 44 43 40 34 31 30 29 28 33 21 24 43 68 64 76 88 90 84 75 75 83 85 87 89 89 87 80 77 82 80 77 72 69 68 66 66 70 69 68
87 98 98 88 66 54 58 42 38 35 28 29 34 26 29 36 31 58 61 62 79 85 83 76 72 76 77 83 83 84 82 79 79 80 77 74 70 69 67 63 62 63 65 72
87 87 91 97 87 93 50 33 29 30 29 26 25 28 26 33 27 42 53 56 67 76 82 80 75 80 76 79 77 76 76 80 79 78 76 72 70 68 64 71 78 81 81 83
81 85 92 98 93 71 52 39 41 36 33 29 27 24 27 30 37 39 48 51 58 68 79 79 78 77 80 82 75 75 78 80 78 78 72 69 77 82 80 78 79 80 77 83
60 76 89 87 98 96 47 38 36 37 48 26 24 26 24 31 44 41 43 49 55 66 75 80 75 75 78 82 74 75 79 78 75 80 78 76 78 77 76 80 77 75 74 72
81 84 93 88 87 83 54 38 36 51 44 27 24 23 29 28 21 30 40 47 55 67 74 74 72 77 76 77 79 83 85 85 78 72 71 72 73 74 74 74 70 69 69 68
66 88 94 80 90 86 43 41 50 38 29 29 31 32 31 26 34 36 40 49 63 71 73 72 72 75 75 74 75 78 81 72 66 65 66 69 69 56 59 64 70 65 66 69
61 70 95 92 69 44 38 29 26 39 34 39 36 38 39 30 36 39 44 52 63 68 71 67 68 73 73 70 65 67 67 60 60 60 63 64 63 61 59 60 68 68 70 70
60 45 58 73 63 58 44 33 34 38 33 32 34 36 40 36 34 40 46 52 61 66 68 64 65 70 73 64 57 57 55 53 53 55 59 60 61 64 64 59 60 65 69 75
63 74 81 75 55 42 42 39 30 27 28 31 32 36 41 40 36 38 47 52 58 64 64 63 64 67 69 62 55 53 48 48 49 50 52 54 58 60 64 63 66 64 68 65
64 66 72 63 55 50 42 36 37 38 37 35 34 36 38 45 43 40 47 52 58 63 65 65 64 65 66 62 55 50 46 44 45 48 50 51 58 59 63 71 87 66 64 68

GFSCGP_sfc_rhum_150.txt.gz
RH
47 52 62 51 48 44 47 47 44 37 29 32 36 37 32 32 32 31 41 46 80 84 82 79 78 81 86 88 91 92 72 66 75 82 93 96 96 98 99 97 94 95 94 90
54 59 45 43 45 46 47 50 49 38 31 31 33 33 31 27 27 26 26 59 86 88 89 88 88 87 93 94 95 95 75 68 70 85 94 94 95 94 96 99 98 96 96 94
53 44 38 42 45 48 49 48 43 38 35 35 34 35 32 30 44 52 53 62 83 88 91 89 87 91 92 95 97 97 90 73 74 84 96 98 97 98 99 99 100 99 96 93
49 36 38 45 47 43 52 40 37 38 41 47 33 50 37 27 57 72 91 91 93 92 88 88 89 92 94 95 93 98 92 88 79 86 94 91 94 96 98 98 98 99 99 96
47 40 47 46 40 36 44 34 35 36 41 57 46 47 41 49 69 69 92 93 93 92 90 87 90 94 90 92 95 96 97 96 89 92 93 96 97 97 98 99 99 99 98 98
37 31 34 37 32 34 34 36 49 56 54 64 48 45 47 43 53 65 86 93 92 92 88 90 94 94 95 92 93 94 97 98 94 95 96 97 99 98 99 96 99 99 99 99
40 38 34 31 34 37 38 47 78 64 81 70 50 53 46 37 49 53 76 93 93 91 91 95 96 94 92 94 94 91 96 99 99 98 98 97 98 96 95 96 99 99 99 99
53 59 35 30 31 34 43 45 77 68 90 83 57 74 54 53 50 53 70 86 89 93 94 97 96 92 92 92 93 94 95 98 96 98 99 97 97 98 99 97 99 99 98 98
56 54 34 30 27 28 40 50 41 59 73 72 66 47 39 70 83 82 89 90 92 92 92 96 94 92 96 94 95 95 96 96 98 98 98 99 98 98 99 99 99 98 98 98
41 48 34 34 32 35 34 36 54 68 70 70 56 56 40 71 91 88 93 94 93 91 94 96 94 94 95 95 95 94 95 97 97 97 97 97 97 97 98 98 99 98 98 96
51 43 42 35 41 41 44 46 46 50 66 69 63 50 39 52 66 86 91 91 92 89 92 94 94 95 95 95 96 96 95 96 98 96 96 97 97 97 97 98 98 98 98 96
72 86 58 45 33 33 29 33 45 62 56 63 58 49 31 42 54 72 87 89 89 86 92 96 95 97 96 97 96 97 96 96 96 95 95 96 95 95 97 98 98 97 98 97
79 88 82 64 48 42 40 37 35 45 53 54 57 44 39 56 64 73 85 90 88 89 95 94 96 97 96 95 95 95 95 95 93 92 93 95 95 96 98 98 97 95 96 97
72 94 89 83 72 67 47 39 33 36 44 44 47 42 39 57 69 71 81 88 87 90 94 92 95 96 95 94 95 94 94 90 91 90 92 93 92 94 96 93 86 86 87 92
69 83 91 94 79 70 64 44 35 39 36 40 34 36 28 36 58 62 70 86 90 91 89 88 90 92 93 94 94 92 91 88 85 86 88 91 87 80 74 73 72 73 76 72
90 77 72 84 63 66 73 57 35 33 33 34 34 38 29 24 46 61 74 85 93 93 87 83 82 86 91 93 94 91 88 88 82 84 83 79 75 72 72 75 71 70 69 68
81 89 81 64 62 86 94 72 48 40 36 33 41 30 26 33 37 50 70 82 86 88 86 82 79 81 86 89 89 91 83 80 82 81 77 73 71 70 68 68 69 78 79 81
93 92 92 97 72 78 60 60 44 43 40 38 33 31 29 28 26 37 55 76 81 83 83 78 74 75 79 83 85 84 80 79 80 79 76 70 70 69 65 66 73 83 92 93
79 87 98 98 68 43 51 45 55 47 42 35 33 30 26 31 39 45 51 61 72 78 77 75 70 69 75 82 80 82 83 82 79 79 76 72 68 72 72 81 90 92 90 94
86 78 87 97 98 58 56 50 45 46 57 36 34 32 30 39 46 35 50 53 67 73 75 77 74 76 80 79 77 81 84 82 81 77 73 72 73 78 81 84 86 89 91 87
96 95 95 89 88 72 57 50 37 63 57 38 34 32 30 36 25 24 42 54 62 73 77 76 79 84 83 81 76 81 83 84 76 73 75 81 82 79 80 84 83 85 85 85
77 95 98 87 92 86 49 42 44 50 46 39 37 36 34 37 34 37 44 55 67 79 81 80 82 82 83 81 74 79 83 75 75 77 80 83 83 67 71 76 80 80 83 89
73 72 81 82 77 61 64 48 48 54 43 48 40 36 37 38 39 42 52 58 71 80 81 78 80 82 84 84 76 84 85 79 78 79 84 82 74 71 69 69 78 78 81 82
67 61 73 66 54 50 42 39 42 42 42 42 36 38 32 33 40 44 52 62 72 78 79 76 80 83 86 82 79 79 80 73 74 77 80 76 70 71 69 63 65 72 77 81
59 71 74 77 58 70 69 57 48 39 37 39 40 44 45 37 39 46 53 65 71 76 75 75 79 82 83 80 76 74 70 68 70 71 71 69 66 65 67 65 68 66 74 67
56 57 71 69 43 49 44 38 43 48 51 50 48 46 45 41 41 50 55 64 70 74 73 74 76 79 80 75 70 66 64 63 63 66 66 66 68 69 66 69 83 64 66 66